Regional Weather Roundup
Issued by NWS

Home | Current Version | Previous Version | Graphics & Text | Print | Product List | Glossary Off
Versions: 1 2 3 4 5 6 7 8 9 10 11 12 13 14 15 16 17 18 19 20 21 22 23 24 25 26 27 28 29 30 31 32 33 34 35 36 37 38 39 40 41 42 43 44 45 46 47 48 49 50

000
ASUS43 KDMX 222101
RWRIA

WEATHER ROUNDUP FOR IOWA
NATIONAL WEATHER SERVICE DES MOINES IA
300 PM CST WED FEB 22 2017

NOTE: "FAIR" INDICATES FEW OR NO CLOUDS BELOW 12,000 FEET WITH NO
SIGNIFICANT WEATHER AND/OR OBSTRUCTIONS TO VISIBILITY.

* - THESE STATIONS ARE NOT NWS STATIONS...THUS NOT UNDER NWS
QUALITY CONTROL.  THEY ALSO DO NOT REPORT WEATHER SUCH
AS PRECIPITATION OR FOG.

IAZ001>003-012>014-020>022-031>034-043>046-222200-
   NORTHWEST IOWA

CITY           SKY/WX    TMP DP  RH WIND       PRES   REMARKS
CARROLL *      SUNNY     70  43  37 W17G24    29.61R
CHEROKEE *     SUNNY     64  41  42 W18G24    29.63R
DENISON *      SUNNY     68  41  37 NW17      29.61R
LE MARS *      SUNNY     64  37  36 W17G24    29.64S
ORANGE CITY *  SUNNY     63  43  48 W20G25    29.63R
SHELDON *      SUNNY     61  46  59 W20G25    29.60S
SIOUX CITY     SUNNY     69  37  30 NW23G30   29.64R
SPENCER        SUNNY     65  45  48 W21       29.61R
STORM LAKE *   SUNNY     64  43  45 NW21      29.62R
$$

IAZ055>058-069>071-079>083-090>094-222200-
   SOUTHWEST IOWA

CITY           SKY/WX    TMP DP  RH WIND       PRES   REMARKS
ATLANTIC *     SUNNY     70  41  35 NW16      29.62S
CLARINDA *     SUNNY     72  39  30 NW10      29.65S
COUNCIL BLFS * SUNNY     72  37  28 NW16G22   29.63S
CRESTON *      SUNNY     68  39  34 W14G21    29.63F
HARLAN  *      SUNNY     68  43  40 NW16G23   29.66S
LAMONI         SUNNY     75  35  23 W15       29.61S
RED OAK *      SUNNY     72  39  30 NW9G16    29.63S
SHENANDOAH *   SUNNY     72  37  28 W9        29.64S
$$

IAZ047>049-059>061-072>074-084-222200-
   CENTRAL IOWA

CITY           SKY/WX    TMP DP  RH WIND       PRES   REMARKS
AMES           SUNNY     66  44  45 W14       29.58S
ANKENY *       SUNNY     70  39  32 W15G22    29.60R
BOONE *        SUNNY     66  43  42 W13       29.58S
CHARITON *     SUNNY     75  34  22 W12G23    29.59S
DES MOINES     MOSUNNY   71  37  28 W16       29.59S
GRINNELL*      SUNNY     71  37  28 SW22      29.57F
KNOXVILLE *    SUNNY     75  34  22 W21       29.57R
MARSHALLTOWN   SUNNY     69  42  37 W15       29.56S
NEWTON *       SUNNY     70  37  30 W16G25    29.57S
PELLA *        SUNNY     75  33  21 W12G18    29.58S
PERRY *          N/A     67  39  36 W17G26    29.60S
$$

IAZ004>006-015-016-023>025-035-036-222200-
   NORTH CENTRAL IOWA

CITY           SKY/WX    TMP DP  RH WIND       PRES   REMARKS
ALGONA *       SUNNY     63  50  63 NW14      29.59R
CLARION *      SUNNY     64  50  59 W13       29.58R
ESTHERVILLE    SUNNY     62  48  60 NW9       29.57F
FORT DODGE *   SUNNY     68  48  49 W8        29.59R
MASON CITY     SUNNY     60  43  53 W8        29.59R
FOREST CITY *    N/A     61  45  55 NW14      29.58R
WEBSTER CITY * SUNNY     66  46  48 W14       29.56S
IOWA FALLS *     N/A     66  47  50 W13       29.58F
$$

IAZ007>011-017>019-026>030-037>042-050>054-066-222200-
   NORTHEAST IOWA

CITY           SKY/WX    TMP DP  RH WIND       PRES   REMARKS
CEDAR RAPIDS   SUNNY     75  42  30 S23G32    29.53F
CHARLES CITY * SUNNY     61  46  59 W9        29.56S
CLINTON *      SUNNY     73  49  42 S18G28    29.58F
DECORAH *      SUNNY     63  43  48 SW8G15    29.54R
DUBUQUE        SUNNY     70  46  42 SW20G25   29.54F
MONTICELLO *   SUNNY     73  50  43 S17G25    29.54S
OELWEIN *      SUNNY     68  43  40 SW15      29.54F
WATERLOO       SUNNY     67  42  40 W15       29.55R
$$

IAZ064-065-067-068-078-222200-
   EAST CENTRAL IOWA

CITY           SKY/WX    TMP DP  RH WIND       PRES   REMARKS
DAVENPORT      SUNNY     71  51  49 S22G29    29.59F
IOWA CITY      SUNNY     76  42  29 S15G30    29.56F
MUSCATINE *    SUNNY     73  50  43 S22G28    29.57F
QUAD CITIES    SUNNY     72  54  53 S20G25    29.58F
$$

IAZ062-063-075>077-085>089-095>099-222200-
   SOUTHEAST IOWA

CITY           SKY/WX    TMP DP  RH WIND       PRES   REMARKS
BURLINGTON     SUNNY     69  54  58 S16G29    29.62F
FAIRFIELD *    SUNNY     77  39  25 SW20G30   29.56F
KEOKUK *       SUNNY     70  54  56 S16       29.62F
OTTUMWA        SUNNY     77  40  26 SW25G33   29.57S
WASHINGTON *   SUNNY     77  41  27 SW22G29   29.57S
$$

ABBREVIATIONS USED IN REMARKS
   TC - TEMPERATURES IN CELSIUS
  WCI - WIND CHILL INDEX
   HX - HEAT INDEX
  VSB - VISIBILITY
$$





USA.gov is the U.S. government's official web portal to all federal, state and local government web resources and services.